WOLF21 Weather Reports


time (UTC)temp
C
wind
direction
speed
KPH
gust
KPH
rain 1hr
cm
rain 24hr
cm
rain mn
cm
humidity
%
barometer
mb
20260508200047 18 248 8.0 17.7 0.00 0.00 0.00 49 1010.4
20260508194536 18 238 4.8 17.7 0.00 0.00 0.00 48 1010.4
20260508193057 19 216 6.4 20.9 0.00 0.00 0.00 48 1010.5
20260508191542 19 249 9.7 19.3 0.00 0.00 0.00 49 1010.7
20260508190044 19 213 3.2 12.9 0.00 0.00 0.00 51 1011.0
20260508184542 19 226 8.0 22.5 0.00 0.00 0.00 51 1011.2
20260508183058 18 240 8.0 19.3 0.00 0.00 0.00 51 1011.4
20260508181554 18 252 6.4 19.3 0.00 0.00 0.00 52 1011.5
20260508180044 18 235 6.4 19.3 0.00 0.00 0.00 53 1011.8
20260508174542 18 277 8.0 24.1 0.00 0.00 0.00 50 1011.9
20260508173043 19 238 6.4 24.1 0.00 0.00 0.00 56 1012.2
20260508171548 18 215 8.0 19.3 0.00 0.00 0.00 51 1012.3
20260508170036 18 238 4.8 22.5 0.00 0.00 0.00 51 1012.7
20260508164544 18 225 9.7 17.7 0.00 0.00 0.00 54 1013.0
20260508163122 18 226 8.0 17.7 0.00 0.00 0.00 54 1013.1
20260508161545 17 183 4.8 16.1 0.00 0.00 0.00 55 1013.3
20260508160044 17 269 6.4 20.9 0.00 0.00 0.00 55 1013.6
20260508154546 17 244 8.0 19.3 0.00 0.00 0.00 55 1013.7
20260508153042 16 218 9.7 22.5 0.00 0.00 0.00 58 1013.7
20260508151547 16 273 6.4 17.7 0.00 0.00 0.00 56 1013.8
20260508150058 16 261 6.4 17.7 0.00 0.00 0.00 56 1013.7
20260508144544 16 186 6.4 19.3 0.00 0.00 0.00 56 1013.8
20260508143049 15 217 6.4 17.7 0.00 0.00 0.00 56 1014.1
20260508141554 15 242 8.0 22.5 0.00 0.00 0.00 55 1014.2
20260508140055 15 271 11.3 22.5 0.00 0.00 0.00 56 1014.3
20260508134539 14 302 8.0 22.5 0.00 0.00 0.00 56 1014.3
20260508133047 13 216 8.0 14.5 0.00 0.00 0.00 56 1014.3
20260508131536 13 243 6.4 11.3 0.00 0.00 0.00 60 1014.3
20260508130044 12 220 4.8 12.9 0.00 0.00 0.00 63 1014.4
20260508124541 11 186 4.8 14.5 0.00 0.00 0.00 65 1014.2
20260508123042 10 0 1.6 12.9 0.00 0.00 0.00 68 1014.2
20260508121546 10 222 4.8 9.7 0.00 0.00 0.00 68 1014.4
20260508120042 9 175 3.2 8.0 0.00 0.00 0.00 69 1014.2
20260508114545 9 223 3.2 9.7 0.00 0.00 0.00 70 1013.9
20260508113109 8 211 1.6 6.4 0.00 0.00 0.00 71 1013.8
20260508111542 8 215 1.6 6.4 0.00 0.00 0.00 72 1013.9
20260508110043 8 224 1.6 6.4 0.00 0.00 0.00 72 1013.7
20260508104550 7 203 1.6 8.0 0.00 0.00 0.00 73 1013.6
20260508103045 7 217 1.6 4.8 0.00 0.00 0.00 73 1013.6
20260508101547 7 211 0.0 3.2 0.00 0.00 0.00 74 1013.5
20260508100044 7 0 0.0 1.6 0.00 0.00 0.00 75 1013.6
20260508094542 7 0 0.0 4.8 0.00 0.00 0.00 74 1013.5
20260508093040 7 201 1.6 8.0 0.00 0.00 0.00 73 1013.5
20260508091545 7 202 0.0 4.8 0.00 0.00 0.00 73 1013.5
20260508090050 7 0 0.0 0.0 0.00 0.00 0.00 72 1013.5
20260508084541 7 0 0.0 4.8 0.00 0.00 0.00 70 1013.5
20260508083042 7 0 1.6 6.4 0.00 0.00 0.00 69 1013.5
20260508081540 7 205 1.6 4.8 0.00 0.00 0.00 69 1013.4
20260508080036 7 200 0.0 4.8 0.00 0.00 0.00 68 1013.4
20260508074545 8 0 0.0 8.0 0.00 0.00 0.00 66 1013.4
20260508073043 8 215 1.6 8.0 0.00 0.00 0.00 65 1013.5
20260508071542 8 213 3.2 6.4 0.00 0.00 0.00 65 1013.6
20260508070041 8 184 3.2 9.7 0.00 0.00 0.00 64 1013.6
20260508064556 8 202 3.2 9.7 0.00 0.00 0.00 64 1013.9
20260508063046 8 200 4.8 8.0 0.00 0.00 0.00 64 1013.9
20260508061554 8 197 1.6 8.0 0.00 0.00 0.00 65 1013.9
20260508060048 8 207 1.6 8.0 0.00 0.00 0.00 66 1013.9
20260508054605 8 223 1.6 6.4 0.00 0.00 0.00 67 1014.0
20260508053040 8 0 0.0 4.8 0.00 0.00 0.00 68 1014.0
20260508051544 8 0 0.0 6.4 0.00 0.00 0.00 68 1014.1
20260508050046 8 175 0.0 4.8 0.00 0.00 0.00 68 1014.2
20260508044544 8 0 0.0 1.6 0.00 0.00 0.00 69 1014.2
20260508043049 8 0 0.0 3.2 0.00 0.00 0.00 68 1014.0
20260508041540 8 0 0.0 1.6 0.00 0.00 0.00 68 1014.1
20260508040045 8 0 0.0 3.2 0.00 0.00 0.00 68 1014.1
20260508034545 8 209 1.6 4.8 0.00 0.00 0.00 66 1014.1
20260508033044 9 0 1.6 4.8 0.00 0.00 0.00 67 1014.0
20260508031551 9 0 0.0 0.0 0.00 0.00 0.00 66 1014.1
20260508030041 8 0 1.6 4.8 0.00 0.00 0.00 69 1013.8
20260508024535 8 0 0.0 0.0 0.00 0.00 0.00 71 1013.9
20260508023045 8 0 0.0 1.6 0.00 0.00 0.00 72 1014.0
20260508021542 8 0 0.0 0.0 0.00 0.00 0.00 67 1013.8
20260508020047 9 0 0.0 0.0 0.00 0.00 0.00 67 1014.0
20260508014544 9 0 0.0 0.0 0.00 0.00 0.00 66 1014.0
20260508013041 10 0 0.0 0.0 0.00 0.00 0.00 60 1014.0
20260508011546 10 0 0.0 1.6 0.00 0.00 0.00 56 1013.9
20260508010043 11 0 0.0 1.6 0.00 0.00 0.00 54 1014.0
20260508004544 11 0 0.0 1.6 0.00 0.00 0.00 54 1013.9
20260508003043 12 248 0.0 3.2 0.00 0.00 0.00 51 1013.8
20260508001544 12 0 0.0 3.2 0.00 0.00 0.00 48 1013.7
20260508000054 13 226 0.0 4.8 0.00 0.00 0.00 47 1013.7
20260507234546 13 246 1.6 14.5 0.00 0.00 0.00 45 1013.5
20260507233037 13 256 1.6 11.3 0.00 0.00 0.00 44 1013.6
20260507231542 14 0 0.0 11.3 0.00 0.00 0.00 43 1013.6
20260507230042 15 272 1.6 9.7 0.00 0.00 0.00 42 1013.4
20260507224541 15 318 1.6 11.3 0.00 0.00 0.00 43 1013.4
20260507223042 15 238 3.2 11.3 0.00 0.00 0.00 43 1013.5
20260507221547 15 74 1.6 19.3 0.00 0.00 0.00 42 1013.7
20260507220043 14 0 1.6 11.3 0.00 0.00 0.00 44 1013.9
20260507214545 15 299 3.2 19.3 0.00 0.00 0.00 40 1013.9
20260507213043 15 309 1.6 11.3 0.00 0.00 0.00 42 1013.9
20260507211547 15 278 8.0 19.3 0.00 0.00 0.00 40 1013.8
20260507210036 15 251 6.4 17.7 0.00 0.00 0.00 44 1013.8
20260507204545 15 313 4.8 16.1 0.00 0.00 0.00 43 1013.8
20260507203043 15 35 4.8 16.1 0.00 0.00 0.00 45 1013.8
20260507201541 14 0 3.2 12.9 0.00 0.00 0.00 43 1013.6